Simultaneous Nadir Overpasses (SNOs) Predictions

Prediction of SNOs between METOP-C and LANDSAT-8 Satellite Orbit:

Table of predicted SNOs for the next 14.0 days since TLE Epoch: 12/2/2023
Index Date (METOP-C) Time (METOP-C) Lat,Lon (METOP-C) SZA (METOP-C ) Date (LANDSAT-8) Time (LANDSAT-8) Lat,Lon (LANDSAT-8) SZA (LANDSAT-8 ) Distance(km) Time Diff (sec)
1 12/03/2023 02:33:44 -81.12, 1.17 74.68 12/03/2023 02:34:56 -81.11, 1.00 74.68 3.02 72
2 12/03/2023 03:24:23 81.14, 169.04 105.39 12/03/2023 03:24:21 81.14, 169.09 105.40 1.19 2
3 12/03/2023 04:14:09 -81.23, -2.15 72.02 12/03/2023 04:12:58 -81.82, -3.26 71.91 68.45 71
4 12/05/2023 22:08:06 -81.12, 67.72 74.32 12/05/2023 22:09:07 -81.12, 67.60 74.31 2.12 61
5 12/05/2023 22:58:46 81.13,-124.76 105.71 12/05/2023 22:58:33 81.13,-124.70 105.71 1.04 13
6 12/08/2023 17:42:29 -81.11, 133.74 74.08 12/08/2023 17:43:18 -81.11, 133.81 74.06 1.19 49
7 12/08/2023 18:33:08 81.13, -58.34 106.00 12/08/2023 18:32:43 81.13, -58.16 106.01 3.03 25
8 12/11/2023 13:16:49 -81.12,-159.65 73.83 12/11/2023 13:17:26 -81.11,-159.65 73.82 0.53 37
9 12/11/2023 14:07:28 81.14, 8.31 106.26 12/11/2023 14:06:51 81.14, 8.35 106.24 0.81 37
10 12/14/2023 08:51:10 -81.12, -93.18 73.65 12/14/2023 08:51:34 -81.12, -93.13 73.64 0.95 24



Historial Predications of SNOs between METOP-C and LANDSAT-8
